Regional Weather Roundup
Issued by NWS Newport/Morehead, NC

Current Version | Previous Version | Text Only | Print | Product List | Glossary On
Versions: 1 2 3 4 5 6 7 8 9 10 11 12 13 14 15 16 17 18 19 20 21 22 23 24 25 26 27 28 29 30 31 32 33 34 35 36 37 38 39 40 41 42 43 44 45 46 47 48 49 50
000
ASUS42 KMHX 272213
RWRMHX
WEATHER ROUNDUP FOR EASTERN NORTH CAROLINA
NATIONAL WEATHER SERVICE NEWPORT/MOREHEAD CITY NC
600 PM EDT TUE SEP 27 2016

NOTE: "FAIR" INDICATES FEW OR NO CLOUDS BELOW 12,000 FEET
WITH NO SIGNIFICANT WEATHER AND/OR OBSTRUCTIONS TO VISIBILITY

NCZ015>017-031-032-045>047-102-103-272300-
NORTH COAST

CITY           SKY/WX    TMP DP  RH WIND       PRES   REMARKS
EDENTON        CLOUDY    79  69  72 E5        29.89F
ELIZABETH CITY CLOUDY    73  70  90 NE5       29.90F
KITTY HAWK     CLOUDY    76  71  84 SE8       29.90F
MANTEO         MOCLDY    74  68  80 S10       29.91F

$$

NCZ045>047-081-094-103-104-272300-
CENTRAL COAST

CITY           SKY/WX    TMP DP  RH WIND       PRES   REMARKS
FRISCO         CLOUDY    75  68  78 E8        29.89F

$$

NCZ095-097-098-100-101-272300-
SOUTHERN COAST

CITY           SKY/WX    TMP DP  RH WIND       PRES   REMARKS
BEAUFORT       CLOUDY    79  70  74 NE5       29.87F
CEDAR ISLAND   NOT AVBL
JACKSONVILLE   MOSUNNY   79  67  66 E6        29.87F
PINEY ISLAND   CLOUDY   N/A N/A N/A E9        29.88F
WILMINGTON     SUNNY     80  70  71 SE6       29.87F


$$

NCZ011>013-027>030-043-044-078>080-089-090>093-098-272300-
COASTAL PLAIN

CITY           SKY/WX    TMP DP  RH WIND       PRES   REMARKS
AHOSKIE        CLOUDY    73  71  93 CALM      29.90S
CLINTON        CLOUDY    72  70  95 CALM      29.89F
ELIZABETHTOWN  LGT RAIN  73  73  99 CALM      29.88R
GOLDSBORO      CLOUDY    76  74  95 NE3       29.87S
GREENVILLE     CLOUDY    73  73 100 N3        29.91S
HAVELOCK       PTSUNNY   77  70  79 E5        29.89F
KENANSVILLE    HVY RAIN  73  72  94 CALM      29.89R FOG
KINSTON        CLOUDY    73  72  94 N3        29.89S
NEW BERN       CLOUDY    79  71  76 SE6       29.89F
RICHLANDS      MOSUNNY   77  71  82 CALM      29.88S
ROCKY MOUNT    PTSUNNY   76  74  93 CALM      29.88F
WASHINGTON     CLOUDY    74  71  89 CALM      29.88F
WHITEVILLE     PTSUNNY   82  66  58 CALM      29.86S

$$

AMZ130-135-150-152-154-156-158-170-250-252-270-ANZ085-086-088-633-658-670-272300-
MARINE OBSERVATIONS

STATION/POSITION TIME  TEMP    WIND        PRES    WAVE   SWELL
                       AIR SEA DIR/SP/G            HT/PER HT/PER
                 (UTC) (F)     (DEG/KT/KT) (MB)    (FT/S) (FT/S)
CHESAPEAKE LIGHT NOT AVBL
64 E VA BEACH    2150   74 74  170/  6/  6 1013.0    3/12   3/12
DUCK             2148   76 77  140/ 15/ 16   N/A
2 E DUCK         2141      77                N/A     3/12   2/12
OREGON INLET     2148   76 76  120/  7/ 10   N/A
13E OREGON INLT  2130      77                N/A     4/ 5   3/ 5
HATTERAS CG      2148   75 77   90/  7/ 11   N/A
DIAMOND BUOY     2150   77 84  100/ 10/ 14 1011.8    4/ 6   3/ 6
CAPE LOOKOUT     2200   78      70/ 12/ 12 1011.3
BEAUFORT LAB     2148   78 77   50/  6/ 10   N/A
30 SE NEW RVR IN 2108   79 83   60/ 10/ 16 1011.3
30 SE NEW RVR IN 2155      83                N/A     4/ 6   2/13
27 SE WRIGHTSVLE 2108   80 81   40/  8/ 12 1011.7
5 SE WRIGHTSVLE  2108   81 81   90/  8/ 12 1012.8
225 S CAPE HAT   2150   81 83  220/ 10/ 14 1011.2    6/ 6   5/ 6
41 SE CHARLESTON 2150   81 82   50/  6/  6 1011.2    2/ 9   2/ 9

$$




USA.gov is the U.S. government's official web portal to all federal, state and local government web resources and services.